Location: Cucq
(50.4773°N, 1.6202°E)
Time: 23:37:45
(UTC+00:00)

Cosmos 1655 Rocket - Pass Details

Date: 07 August 2020
Orbit: 970 x 1007 km, 83.0° (Epoch: 23 September)

Event Time Altitude Azimuth Distance (km) Brightness Sun altitude
Rises 02:30:13 0° 348° (NNW) 3,709 7.7 -15.5°
Reaches altitude 10° 02:32:46 10° 346° (NNW) 2,751 6.9 -15.2°
Maximum altitude 02:38:59 65° 266° (W) 1,069 4.0 -14.6°
Enters shadow 02:44:32 13° 187° (S) 2,500 5.7 -14.0°
